Regional Weather Roundup
Issued by NWS Burlington, VT

Home | Current Version | Previous Version | Graphics & Text | Print | Product List | Glossary On
Versions: 1 2 3 4 5 6 7 8 9 10 11 12 13 14 15 16 17 18 19 20 21 22 23 24 25 26 27 28 29 30 31 32 33 34 35 36 37 38 39 40 41 42 43 44 45 46 47 48 49 50
000
ASUS41 KBTV 310730
RWRBTV
VERMONT REGIONAL WEATHER ROUNDUP
NATIONAL WEATHER SERVICE BURLINGTON VT
200 AM EST SAT JAN 31 2015

NOTE: "FAIR" INDICATES FEW OR NO CLOUDS BELOW 12,000 FEET WITH NO
SIGNIFICANT WEATHER AND/OR OBSTRUCTIONS TO VISIBILITY.

* THESE REPORTS ARE NOT UNDER NWS QUALITY CONTROL AND/OR DO NOT
  REPORT WEATHER SUCH AS PRECIPITATION AND FOG.

VTZ001>019-310800-
_____VERMONT_____


CITY           SKY/WX    TMP DP  RH WIND       PRES   REMARKS
BURLINGTON     CLOUDY     2  -8  63 N14G23    30.13R WCI -16
MONTPELIER     LGT SNOW  -1  -6  79 NW12G22   30.00R WCI -18
MORRISVILLE    MIX PCPN   2  -7  66 N8G21     30.06R
ST. JOHNSBURY*   N/A      6   0  76 MISG      29.97R
LYNDONVILLE*   CLOUDY     3  -6  65 W16G23    29.96R WCI -17
MIDDLEBURY*    CLOUDY     4  -3  74 N14G25    30.06R HAZE    WCI -14
RUTLAND*       CLOUDY     3  -2  78 NW15G21   29.98S WCI -15
SPRINGFIELD    SUNNY      7  -3  64 NW12G17   29.94R WCI  -8
HIGHGATE*      FAIR      -1  -9  69 NW7       30.17R
NEWPORT*       CLOUDY     0  -6  76 NW15G23   30.02R HAZE    WCI -20
BENNINGTON     CLOUDY     4  -6  63 NW8       30.00R
SUTTON*          N/A      0 N/A N/A MISG        N/A
GALLUP MILLS*    N/A      1 N/A N/A MISG        N/A
UNION VILLAGE*   N/A      7 N/A N/A MISG        N/A
MT. MANSFIELD*   N/A    -13 N/A N/A CALM        N/A

_____LAKE CHAMPLAIN_____


CITY           SKY/WX    TMP DP  RH WIND       PRES   REMARKS
BURTON ISLAND*   N/A      3  -6  66 NW13        N/A  WCI -14
COLCHESTER RF*   N/A      7   0  72 N24         N/A  WCI -15
DIAMOND ISL*     N/A      7  -4  61 NW15        N/A  WCI -11

$$

NYZ007-026>031-035-052-083-310800-
_____NORTHERN NEW YORK_____


CITY           SKY/WX    TMP DP  RH WIND       PRES   REMARKS
PLATTSBURGH    MOSUNNY    0 -10  63 NW9       30.16R
SARANAC LAKE   CLOUDY    -6 -12  75 W5        30.03R HAZE
MASSENA        MOSUNNY   -4 -13  65 W7        30.28R
OGDENSBURG*    SUNNY     -2  -9  71 NW8       30.29R
POTSDAM*       SUNNY     -6 -11  77 W3        30.26R
STARK FALLS*     N/A     -8 N/A N/A NW7         N/A
WATERTOWN      MOSUNNY  -11 -17  75 CALM      30.31R
FT DRUM        MOSUNNY   -6 -12  73 N5        30.24R
ALBANY         MOSUNNY    5  -7  57 W15       30.10R WCI -13
GLENS FALLS    SUNNY      5  -8  55 NW13      30.08R WCI -12

$$
NHZ002-005-011-310800-
_____NEW HAMPSHIRE_____


CITY           SKY/WX    TMP DP  RH WIND       PRES   REMARKS
LEBANON        SUNNY      6  -5  60 N16       29.95R WCI -12
KEENE          SUNNY     10   0  61 N18G28    29.88S WCI  -8
MT WASHINGTON  SNOW       0   0 100 N37G54      N/A  VSB 1/8 WCI -28
PLYMOUTH       LGT SNOW   9   4  82 W18G26    29.84S WCI -10
WHITEFIELD     LGT SNOW   6   0  76 NW9       29.92S

$$

_____REGIONAL QUEBEC LOCATIONS_____


CITY           SKY/WX    TMP DP  RH WIND       PRES   REMARKS
MONTREAL       MOSUNNY   -2 -11  65 W12       30.20R WCI -20
QUEBEC CITY    PTSUNNY    5  -6  61 NW10G17   29.97F WCI -10
SHERBROOKE     LGT SNOW   0  -6  78 W15       30.01R WCI -20

_____REGIONAL ONTARIO LOCATIONS_____


CITY           SKY/WX    TMP DP  RH WIND       PRES   REMARKS
OTTAWA         SUNNY     -6 -15  65 NW15      30.28R WCI -27

______KEY______
VSB  - VISIBILITY IN MILES
WCI  - WIND CHILL INDEX
HX   - HEAT INDEX
$$



USA.gov is the U.S. government's official web portal to all federal, state and local government web resources and services.